Regional Weather Roundup
Issued by NWS

Home | Current Version | Previous Version | Graphics & Text | Print | Product List | Glossary On
Versions: 1 2 3 4 5 6 7 8 9 10 11 12 13 14 15 16 17 18 19 20 21 22 23 24 25 26 27 28 29 30 31 32 33 34 35 36 37 38 39 40 41 42 43 44 45 46 47 48 49 50
000
ASUS43 KMPX 122310
RWRMN
WEATHER ROUNDUP FOR MINNESOTA
NATIONAL WEATHER SERVICE TWIN CITIES/CHANHASSEN MN
600 PM CDT SAT JUL 12 2014


NOTE: "FAIR" INDICATES FEW OR NO CLOUDS BELOW 12,000 FEET WITH NO
SIGNIFICANT WEATHER AND/OR OBSTRUCTIONS TO VISIBILITY. N/A MEANS
CURRENT SKY AND/OR WEATHER CONDITIONS ARE NOT AVAILABLE.

MNZ060>063-068>070-130000-
   Twin Cities Metro

CITY           SKY/WX    TMP DP  RH WIND       PRES   REMARKS
TWIN CITIES    CLOUDY    73  68  84 NW9       29.94S
ST PAUL        CLOUDY    73  68  84 N7        29.94S
CRYSTAL        CLOUDY    76  65  68 NW7       29.93S
BLAINE         PTSUNNY   75  68  78 W5        29.94S
LAKEVILLE      CLOUDY    72  66  83 NW7       29.93S
EDEN PRAIRIE   CLOUDY    75  69  81 N10       29.93F
SOUTH ST PAUL  CLOUDY    73  69  86 N6        29.94R
LAKE ELMO      FAIR      72  68  88 NW6       29.96R
$$
MNZ001>005-007-008-013>017-022>024-027-028-130000-
   Northwest Minnesota

CITY           SKY/WX    TMP DP  RH WIND       PRES   REMARKS
BEMIDJI        PTSUNNY   74  55  49 W16G24    29.92S
HALLOCK        TSTM      63  55  77 NW18G35   29.93R
ROSEAU         PTSUNNY   66  52  59 NW31G41   29.90R
WARROAD        LGT RAIN  68  54  60 NW28G44   29.90R
THIEF RVR FALL MOSUNNY   77  54  44 W17G25    29.88F
CROOKSTON      MOSUNNY   79  55  44 W18       29.89F
FOSSTON        MOSUNNY   75  55  50 W14       29.92F
DETROIT LAKES  MOSUNNY   75  57  53 W13       29.96F
MOORHEAD       SUNNY     81  57  44 W16       29.93F
PARK RAPIDS    MOSUNNY   74  57  55 W14       29.93F
$$
MNZ006-009>011-018-025>026-130000-
   North Central Minnesota

CITY           SKY/WX    TMP DP  RH WIND       PRES   REMARKS
BAUDETTE       MOSUNNY   77  54  44 W9G22     29.85F
FLAG ISLAND    CLOUDY    61  54  77 NW25      29.88R
INTL FALLS     PTSUNNY   73  56  54 W9G22     29.84F
WASKISH        MOSUNNY   75  61  60 SW13G23   29.88F
BIG FORK       MOSUNNY   75  57  53 W8G17     29.89S
LONGVILLE      MOSUNNY   75  61  60 W8        29.91F
GRAND RAPIDS   PTSUNNY   73  57  56 SW8       29.90F
CRANE LAKE     PTSUNNY   72  55  56 SW5       29.86F
ORR            MOSUNNY   73  54  49 W9        29.84F
COOK           PTSUNNY   73  55  53 W8        29.87F
$$
MNZ012-019>021-037-130000-
   Northeast Minnesota

CITY           SKY/WX    TMP DP  RH WIND       PRES   REMARKS
DULUTH         CLOUDY    74  58  57 SW9       29.90F
ELY            PTSUNNY   72  57  60 SW5       29.87F
HIBBING        PTSUNNY   74  55  51 W8        29.89F
EVELETH        PTSUNNY   73  55  53 SW9       29.90S
DULUTH HARBOR  CLOUDY    73  64  73 S9        29.88F
TWO HARBORS    CLOUDY    70  61  73 S6        29.87F
SILVER BAY     CLOUDY    68  61  77 S5        29.86F
GRAND MARAIS     N/A     56  51  84 W3        29.86F
G MARAIS ARPRT CLOUDY    63  52  67 SW5       29.91S
$$
MNZ029>031-032-039>041-046>048-054>057-064-130000-
   West Central Minnesota

CITY           SKY/WX    TMP DP  RH WIND       PRES   REMARKS
FERGUS FALLS   MOSUNNY   79  55  44 W13       29.95F
WHEATON        SUNNY     75  61  60 W10       29.98F
MORRIS         SUNNY     77  61  57 W12       29.97F
ALEXANDRIA     SUNNY     75  60  59 W13       29.98F
ELBOW LAKE     FAIR      75  61  60 W7        29.97F
WADENA         SUNNY     73  61  64 W12G18    29.95S
GLENWOOD       SUNNY     75  61  60 W12       29.98S
APPLETON       SUNNY     81  61  50 W9        29.98S
BENSON         SUNNY     79  63  57 NW10      29.97F
ORTONVILLE     SUNNY     79  61  53 W8        29.98F
MADISON        SUNNY     81  64  57 NW8       29.99S
WILLMAR        FAIR      77  61  57 NW12      29.98F
$$
MNZ033>034-036-042>043-049>051-058-059-130000-
   Central Minnesota

CITY           SKY/WX    TMP DP  RH WIND       PRES   REMARKS
ST CLOUD       PTSUNNY   77  59  53 W8        29.94F
SAUK CENTRE    MOCLDY    74  60  60 NW9       29.96F
PAYNESVILLE    HVY RAIN  73  60  65 SW10      29.97S
AITKIN         MOSUNNY   75  63  64 SW7       29.91S
PINE RIVER     SUNNY     73  59  60 W7        29.95F
BRAINERD       MOSUNNY   79  56  45 W14G22    29.93F
STAPLES        MOSUNNY   73  57  56 W13       29.94F
LONG PRAIRIE   FAIR      73  57  56 W9        29.96F
LITTLE FALLS   MOSUNNY   73  55  53 W10       29.94S
LITCHFIELD     MOSUNNY   77  66  69 NW6       29.96F
BUFFALO        PTSUNNY   75  61  62 NW7       29.96R
MAPLE LAKE     PTSUNNY   75  64  68 NW6       29.95F
$$
MNZ037-044-045-052-053-130000-
   East Central Minnesota

CITY           SKY/WX    TMP DP  RH WIND       PRES   REMARKS
PRINCETON      CLOUDY    73  63  68 W7        29.94F
MORA           CLOUDY    73  61  64 W6        29.94F
CAMBRIDGE      CLOUDY    75  61  60 W6        29.92F
RUSH CITY      CLOUDY    72  63  72 SW3       29.94S
MOOSE LAKE     CLOUDY    73  59  60 W5        29.89F
HINCKLEY       FAIR      72  63  73 S5        29.93S
CLOQUET        CLOUDY    72  57  60 W8        29.91F
MCGREGOR       PTSUNNY   73  61  64 W6        29.92S
$$
MNZ071>073-080-081-089-090-097-098-130000-
   Southwest Minnesota

CITY           SKY/WX    TMP DP  RH WIND       PRES   REMARKS
MONTEVIDEO     MOSUNNY   79  70  73 NW6       29.99S
GRANITE FALLS  MOSUNNY   75  65  70 W6        30.00F
CANBY          SUNNY     78  65  63 NW3       30.01F
MARSHALL       MOSUNNY   75  64  69 N9        29.99F
REDWOOD FALLS  MOSUNNY   76  66  71 NW6       29.98R
OLIVIA         MOSUNNY   73  63  68 NW6       29.98S
PIPESTONE      MOSUNNY   79  63  57 N7        30.02S
WINDOM         MOSUNNY   77  63  61 CALM      30.00R
WORTHINGTON    MOSUNNY   79  64  61 N6        30.02R
JACKSON        SUNNY     77  63  61 CALM      29.99S
TRACY          MOSUNNY   76  67  73 N6        30.01S
SLAYTON        MOSUNNY   76  63  62 CALM      30.02F
$$
MNZ065>067-074>077-082>085-091>093-130000-
   South Central Minnesota

CITY           SKY/WX    TMP DP  RH WIND       PRES   REMARKS
MANKATO        CLOUDY    73  64  73 SW3       29.95F
NEW ULM        PTSUNNY   73  70  88 W5        29.97R
ST JAMES       MOSUNNY   75  63  64 W3        29.98S
FAIRMONT       MOSUNNY   81  64  57 N7        29.96F
GLENCOE        PTSUNNY   76  64  67 NW7G16    29.95S
FARIBAULT      CLOUDY    75  63  64 CALM      29.94F
OWATONNA       CLOUDY    73  64  73 CALM      29.95F
WASECA         PTSUNNY   72  61  68 CALM      29.96F
ALBERT LEA     MOSUNNY   75  66  73 N6        29.95F
$$
MNZ078>079-086>088-094>096-130000-
   Southeast Minnesota

CITY           SKY/WX    TMP DP  RH WIND       PRES   REMARKS
ROCHESTER      CLOUDY    70  66  87 S6        29.97F
RED WING       LGT RAIN  72  66  83 SE5       29.92F
STANTON        CLOUDY    72  66  80 CALM      29.92F
DODGE CENTER   CLOUDY    73  66  78 NW7       29.96F
WINONA         CLOUDY    70  68  94 SE6       29.95F
AUSTIN         PTSUNNY   72  68  88 SW5       29.95F
PRESTON        DRIZZLE   65  64  97 SE5       29.98F
$$
ABBREVIATIONS USED IN REMARKS
   TC - TEMPERATURES IN CELSIUS
  WCI - WIND CHILL INDEX
   HX - HEAT INDEX
  VSB - VISIBILITY
$$


USA.gov is the U.S. government's official web portal to all federal, state and local government web resources and services.